COSMOS 1275 DEB, 12704

Orbit data source: Space-Track

COSMOS 1275 DEB, 12704 is space debris in LEO originally from a launch on Thu, 04 Jun 1981 UTC launched from the Plesetsk Missile And Space Complex (PKMTR). Debris objects in space refer to the collection of defunct objects orbiting the Earth. Examples of debris include non-operational satellites, rocket bodies, and fragments generated from explosions, collisions, or faulty payload assembly.

Loading next visibility...
Identifier
12704, 1981-053AY
Orbit
LEO
Country
Flag of CISCIS
Related business
Manufacturer
Unknown
Mission
Spacecraft
Bus & Motor
Unknown
Mass
Unknown
Launch date (UTC)
1981-06-04 (44 years ago)
Launch vehicle
Unknown
Launch site
Plesetsk Missile And Space Complex (PKMTR)
Object type
Payload
Rocket body
Debris
Shape & HBR
Unknown shape, 0.1 m
Radar Cross Section
Small (<0.1 m²)

Expand to show TLE details & history
Last TLE update: 13 hours ago

TLE from 13 hours ago
0 COSMOS 1275 DEB
1 12704U 81053AY  25301.51201713  .00000601  00000-0  64230-3 0  9997
2 12704  82.9862 299.1237 0082087 265.6484 224.6003 13.70958000205472
Epoch: 2025-10-28T12:17Z
TLE epoch observation values (Epoch: 2025-10-28T12:17:18.280Z)
Latitude
49.98703°
Longitude
-110.68444°
Altitude
1,047.43 km
Speed
7.311 km/s
True Right ascension
07h 22m 57s
True Declination
49° 49' 27"
Sunlit
Object was in daylight at epoch
Visualization orbit readout
Latitude
Unknown
Longitude
Unknown
Altitude
Unknown
Speed
Unknown
Apparent Right ascension
Unknown
Apparent Declination
Unknown
Sunlit
N/A
Visualization observer readout
Local Sidereal Time
20:27:33
Azimuth
Unknown
Elevation
Unknown
Doppler factor
Unknown
Orbital elements
Apogee altitude
1,053.796 km
Perigee altitude
932.776 km
Semi-major axis
7,371.423 km
Eccentricity
0.00821
Inclination
82.9862°
RAAN
299.1237°
Arg. of periapsis
265.6484°
True anomaly
223.94462°
Mean anomaly
224.6003°
Eccentric anomaly
224.27198°
Mean motion
3.42938 °/min
Orbital period
104.98 mins
BSTAR
0.0006423
Loading maneuver chart data...
Computing Atmospheric mass density...
Loading historical data...
Loading historical data...
Loading historical data...
Loading historical data...
Loading historical data...
Loading historical data...
Loading historical data...

Documentation

Showing up to 5 results
|